This is the latest recevied weather packets stored in our database for station/object KD8FRE. If no packets are shown the sender has not sent any weather packets the latest 10 day(s).
| Time | Temp. | Humidity | Pressure | Rain* | Wind** | Luminosity | Snow |
|---|---|---|---|---|---|---|---|
| 1777781061 | 4.44° C | 61% | 1016 hPa | 0 mm | - | 0 W/m² | - |
| 1777780758 | 4.44° C | 62% | 1016.1 hPa | 0 mm | - | 0 W/m² | - |
| 1777780455 | 4.44° C | 64% | 1016.2 hPa | 0 mm | - | 0 W/m² | - |
| 1777780152 | 4.44° C | 65% | 1016.1 hPa | 0 mm | - | 0 W/m² | - |
| 1777779849 | 4.44° C | 66% | 1016.1 hPa | 0 mm | - | 0 W/m² | - |
| 1777779546 | 4.44° C | 67% | 1016.1 hPa | 0 mm | - | 0 W/m² | - |
| 1777779244 | 4.44° C | 65% | 1016.1 hPa | 0 mm | - | 0 W/m² | - |
| 1777778942 | 4.44° C | 66% | 1016.2 hPa | 0 mm | - | 0 W/m² | - |
| 1777778640 | 3.89° C | 65% | 1016.3 hPa | 0 mm | - | 0 W/m² | - |
| 1777778337 | 3.89° C | 69% | 1016.1 hPa | 0 mm | - | 0 W/m² | - |
| 1777778035 | 3.33° C | 73% | 1016.1 hPa | 0 mm | - | 0 W/m² | - |
| 1777777731 | 3.33° C | 70% | 1016.2 hPa | 0 mm | - | 0 W/m² | - |
| 1777777428 | 3.33° C | 71% | 1016.2 hPa | 0 mm | - | 0 W/m² | - |
| 1777777124 | 3.33° C | 71% | 1016.3 hPa | 0 mm | - | 0 W/m² | - |
| 1777776822 | 3.33° C | 70% | 1016.3 hPa | 0 mm | - | 0 W/m² | - |
| 1777776519 | 3.33° C | 71% | 1016.3 hPa | 0 mm | - | 0 W/m² | - |
| 1777776215 | 3.33° C | 70% | 1016.4 hPa | 0 mm | - | 0 W/m² | - |
| 1777775912 | 3.33° C | 68% | 1016.4 hPa | 0 mm | - | 0 W/m² | - |
| 1777775609 | 3.89° C | 67% | 1016.5 hPa | 0 mm | - | 0 W/m² | - |
| 1777775306 | 3.89° C | 66% | 1016.5 hPa | 0 mm | - | 0 W/m² | - |
| 1777775006 | 3.89° C | 65% | 1016.5 hPa | 0 mm | - | 0 W/m² | - |
| 1777774702 | 4.44° C | 64% | 1016.5 hPa | 0 mm | - | 0 W/m² | - |
| 1777774399 | 4.44° C | 63% | 1016.5 hPa | 0 mm | - | 0 W/m² | - |
| 1777774097 | 4.44° C | 64% | 1016.4 hPa | 0 mm | - | 0 W/m² | - |
| 1777772883 | 5° C | 59% | 1016.3 hPa | 0 mm | - | 0 W/m² | - |
* Rain latest hour (hover to see other rain measurements)
** Current wind speed in m/s (hover to see current wind gust speed)